Location: Proctor
(47.8934°N, 114.3048°W)
Time: 10:58:55
(UTC+00:00)

Transit 4A - Pass Details

Date: 26 June 2024
Orbit: 870 x 973 km, 66.8° (Epoch: 13 July)

Event Time Altitude Azimuth Distance (km) Brightness Sun altitude
Rises 10:54:02 0° 323° (NW) 3,478 11.0 -6.6°
Reaches altitude 10° 10:57:33 10° 344° (NNW) 2,549 10.6 -6.2°
Maximum altitude 11:01:11 16° 23° (NNE) 2,135 11.0 -5.7°
Drops below altitude 10° 11:04:52 10° 61° (ENE) 2,580 11.8 -5.3°
Sets 11:08:26 0° 82° (E) 3,540 12.0 -4.9°
